1485720000.08,49719,12.81,73788.0,-6.53,-37.81,-37.93,0,*51
1485720001.37,49720,12.81,73786.8,-6.53,-37.93,-37.99,0,*52
1485720002.66,49721,12.81,73786.8,-6.53,-37.81,-38.11,0,*5F
1485720003.93,49722,12.81,73788.0,-6.53,-38.11,-38.11,0,*5A
1485720005.21,49723,12.81,73784.3,-6.53,-37.93,-38.11,0,*5E
1485720006.47,49724,12.81,73786.3,-6.55,-37.99,-38.11,0,*55
1485720007.75,49725,12.81,73788.5,-6.53,-37.93,-38.11,0,*58
1485720009.01,49726,12.81,73784.5,-6.55,-37.81,-38.11,0,*5E
1485720010.23,49727,12.81,73786.8,-6.51,-37.87,-38.17,0,*5B
1485720011.48,49728,12.81,73788.3,-6.53,-38.11,-38.17,0,*56
1485720012.75,49729,12.81,73784.8,-6.55,-37.93,-37.99,0,*5D
1485720014.0,49730,12.81,73788.0,-6.53,-37.75,-37.93,0,*51
1485720015.24,49731,12.81,73784.3,-6.55,-37.57,-37.81,0,*55
1485720016.5,49732,12.81,73786.5,-6.55,-37.69,-37.99,0,*52
1485720017.76,49733,12.81,73784.5,-6.55,-37.93,-38.11,0,*59
1485720019.02,49734,12.81,73786.0,-6.55,-37.99,-38.11,0,*54
1485720020.28,49735,12.81,73788.3,-6.55,-37.93,-38.11,0,*5F
1485720021.51,49736,12.81,73788.5,-6.55,-38.11,-38.17,0,*5F
1485720022.77,49737,12.81,73786.3,-6.55,-37.93,-38.11,0,*5D
1485720024.07,49738,12.81,73784.0,-6.57,-37.81,-38.23,0,*52
1485720025.31,49739,12.81,73782.3,-6.57,-37.87,-38.17,0,*52
1485720026.55,49740,12.81,73786.8,-6.57,-37.87,-38.17,0,*5C
1485720027.82,49741,12.81,73790.3,-6.57,-38.05,-38.23,0,*5F
1485720029.06,49742,12.81,73784.5,-6.57,-38.17,-38.35,0,*58
1485720030.3,49743,12.81,73784.5,-6.57,-38.05,-38.35,0,*5A
1485720031.54,49744,12.81,73780.8,-6.57,-38.17,-38.43,0,*5F
1485720032.75,49745,12.81,73784.8,-6.59,-38.05,-38.17,0,*52
1485720033.96,49746,12.81,73784.3,-6.59,-37.87,-38.05,0,*57
1485720035.23,49747,12.81,73784.0,-6.57,-37.81,-38.05,0,*5E
1485720036.47,49748,12.81,73780.5,-6.59,-37.81,-38.05,0,*5F
1485720037.71,49749,12.81,73782.0,-6.59,-37.87,-38.23,0,*5C
1485720038.98,49750,12.81,73780.0,-6.57,-37.87,-38.23,0,*5A
1485720040.24,49751,12.81,73782.8,-6.61,-38.11,-38.29,0,*54
1485720041.5,49752,12.81,73786.5,-6.61,-38.11,-38.29,0,*57
1485720042.71,49753,12.81,73784.5,-6.59,-37.87,-38.17,0,*50
1485720043.95,49754,12.81,73780.0,-6.61,-37.63,-37.87,0,*50
1485720045.24,49755,12.81,73782.8,-6.63,-37.63,-37.63,0,*59
1485720046.45,49756,12.81,73786.8,-6.59,-37.57,-37.75,0,*53
1485720047.69,49757,12.81,73784.3,-6.59,-37.81,-38.05,0,*51
1485720048.93,49758,12.81,73782.5,-6.59,-37.81,-38.05,0,*5E
1485720050.14,49759,12.81,73780.8,-6.59,-37.75,-37.87,0,*51
1485720051.41,49760,12.81,73782.0,-6.61,-37.81,-37.93,0,*5E
1485720052.61,49761,12.81,73782.5,-6.61,-37.27,-37.33,0,*59
1485720053.85,49762,12.81,73780.3,-6.59,-37.03,-37.21,0,*54
1485720055.09,49763,12.81,73780.3,-6.59,-37.27,-37.39,0,*5A
1485720056.33,49764,12.81,73780.8,-6.59,-37.45,-37.63,0,*56
1485720057.54,49765,12.81,73780.3,-6.59,-37.57,-37.75,0,*53
1485720058.81,49766,12.81,73780.5,-6.59,-37.63,-37.81,0,*5C
1485720060.07,49767,12.81,73784.3,-6.59,-37.39,-37.63,0,*5E
1485720061.34,49768,12.81,73780.3,-6.57,-37.45,-37.63,0,*54
1485720062.55,49769,12.81,73782.0,-6.59,-37.57,-37.75,0,*5F
1485720063.76,49770,12.81,73780.8,-6.59,-37.57,-37.75,0,*57
1485720064.97,49771,12.81,73782.0,-6.59,-37.57,-37.75,0,*56
1485720066.24,49772,12.81,73780.5,-6.57,-37.63,-37.87,0,*51
1485720067.45,49773,12.81,73780.5,-6.59,-37.45,-37.75,0,*57
1485720068.66,49774,12.81,73780.8,-6.59,-37.75,-37.87,0,*5E
1485720069.91,49775,12.81,73780.8,-6.59,-37.63,-37.87,0,*58
1485720071.17,49776,12.81,73780.8,-6.57,-37.45,-37.63,0,*5B
1485720072.44,49777,12.81,73782.5,-6.57,-37.45,-37.39,0,*55
1485720073.68,49778,12.81,73780.8,-6.59,-37.21,-37.27,0,*59
1485720074.97,49779,12.81,73786.0,-6.57,-36.91,-37.09,0,*50
1485720076.23,49780,12.81,73786.0,-6.57,-36.85,-37.09,0,*53
1485720077.53,49781,12.81,73782.5,-6.57,-37.21,-37.39,0,*5E
1485720078.76,49782,12.81,73780.5,-6.55,-36.79,-37.03,0,*5A
1485720080.05,49783,12.81,73784.5,-6.53,-37.21,-37.51,0,*56
1485720081.33,49784,12.81,73780.3,-6.53,-37.39,-37.69,0,*53
1485720082.55,49785,12.81,73782.5,-6.55,-36.97,-37.15,0,*5A
1485720083.78,49786,12.81,73784.5,-6.53,-37.15,-37.33,0,*50
1485720085.04,49787,12.81,73784.3,-6.53,-37.33,-37.51,0,*51
1485720086.29,49788,12.81,73782.5,-6.55,-37.51,-37.69,0,*57
1485720087.55,49789,12.81,73780.5,-6.53,-37.33,-37.51,0,*5F
1485720088.81,49790,12.81,73780.5,-6.53,-37.57,-37.81,0,*58
1485720090.07,49791,12.81,73786.5,-6.55,-37.51,-37.69,0,*5F
1485720091.32,49792,12.81,73782.0,-6.53,-37.51,-37.57,0,*57
1485720092.58,49793,12.81,73780.3,-6.53,-37.39,-37.75,0,*58
1485720093.82,49794,12.81,73784.0,-6.55,-37.75,-37.81,0,*5A
1485720095.06,49795,12.81,73784.3,-6.55,-37.33,-37.39,0,*5A
1485720096.34,49796,12.81,73782.3,-6.53,-37.39,-37.51,0,*5B
1485720097.6,49797,12.81,73780.3,-6.53,-37.33,-37.39,0,*5E
1485720098.81,49798,12.81,73786.8,-6.55,-37.57,-37.57,0,*5D
1485720100.04,49799,12.81,73786.8,-6.53,-37.33,-37.33,0,*5A
1485720101.33,49800,12.81,73784.5,-6.53,-37.21,-37.39,0,*5C
1485720102.61,49801,12.81,73786.0,-6.53,-37.39,-37.51,0,*5A
1485720103.84,49802,12.81,73782.5,-6.53,-37.03,-37.33,0,*54
1485720105.1,49803,12.81,73782.8,-6.53,-37.03,-37.21,0,*56
1485720106.36,49804,12.81,73784.0,-6.53,-37.15,-37.39,0,*5F
1485720107.56,49805,12.81,73782.3,-6.51,-37.33,-37.45,0,*53
1485720108.77,49806,12.81,73782.3,-6.51,-37.27,-37.33,0,*54
1485720110.03,49807,12.81,73784.3,-6.47,-37.21,-37.39,0,*5E
1485720111.27,49808,12.81,73784.3,-6.51,-37.27,-37.51,0,*5E
1485720112.5,49809,12.75,73780.8,-6.47,-36.91,-36.97,0,*5F
1485720113.71,49810,12.81,73784.3,-6.51,-36.97,-37.27,0,*5C
1485720114.95,49811,12.81,73782.3,-6.47,-37.03,-37.21,0,*50
1485720116.16,49812,12.81,73786.3,-6.47,-36.85,-37.03,0,*5C
1485720117.39,49813,12.81,73780.3,-6.47,-36.73,-36.91,0,*5E
1485720118.63,49814,12.81,73782.8,-6.51,-36.73,-36.91,0,*5E
1485720119.89,49815,12.81,73780.5,-6.47,-36.91,-37.09,0,*54
1485720121.12,49816,12.75,73780.0,-6.47,-36.73,-36.91,0,*5B
1485720122.38,49817,12.81,73784.3,-6.47,-36.91,-36.91,0,*56
1485720123.58,49818,12.81,73782.0,-6.47,-36.67,-36.85,0,*55
1485720124.87,49819,12.81,73782.8,-6.45,-37.09,-37.09,0,*5A
1485720126.12,49820,12.81,73786.3,-6.45,-37.09,-37.27,0,*5C
1485720127.38,49821,12.81,73784.8,-6.45,-37.03,-37.09,0,*5B
1485720128.64,49822,12.81,73786.0,-6.43,-37.21,-37.39,0,*5D
1485720129.88,49823,12.75,73782.0,-6.45,-37.27,-37.57,0,*54
1485720131.13,49824,12.75,73780.3,-6.45,-37.27,-37.39,0,*5B
1485720132.42,49825,12.81,73786.3,-6.45,-37.09,-37.09,0,*55
1485720133.65,49826,12.81,73784.3,-6.43,-37.27,-37.39,0,*5F
1485720134.94,49827,12.81,73780.3,-6.45,-37.09,-37.21,0,*5D
1485720136.22,49828,12.81,73782.0,-6.45,-37.09,-37.09,0,*58
1485720137.48,49829,12.81,73784.0,-6.43,-37.09,-37.21,0,*55
1485720138.71,49830,12.81,73786.5,-6.43,-37.03,-37.09,0,*5D
1485720139.94,49831,12.81,73784.0,-6.43,-37.27,-37.39,0,*59
1485720141.17,49832,12.81,73784.0,-6.43,-37.39,-37.57,0,*5D
1485720142.43,49833,12.81,73784.3,-6.45,-37.39,-37.57,0,*5A
1485720143.69,49834,12.81,73788.0,-6.45,-37.57,-37.63,0,*52
1485720144.89,49835,12.81,73786.0,-6.43,-37.27,-37.45,0,*56
1485720146.12,49836,12.81,73786.3,-6.43,-37.09,-37.27,0,*5D
1485720147.35,49837,12.81,73782.0,-6.43,-37.03,-37.09,0,*5A
1485720148.58,49838,12.81,73784.3,-6.43,-37.03,-37.09,0,*55
1485720149.86,49839,12.81,73780.3,-6.41,-37.39,-37.51,0,*52
1485720151.12,49840,12.81,73784.0,-6.41,-37.51,-37.57,0,*54
1485720152.41,49841,12.81,73784.5,-6.41,-37.51,-37.63,0,*52
1485720153.63,49842,12.81,73784.3,-6.43,-37.39,-37.45,0,*59
1485720154.83,49843,12.81,73786.0,-6.43,-37.27,-37.45,0,*57
1485720156.04,49844,12.75,73780.5,-6.43,-37.27,-37.57,0,*53
1485720157.3,49845,12.81,73784.3,-6.43,-37.39,-37.63,0,*5A
1485720158.56,49846,12.81,73784.3,-6.41,-37.21,-37.33,0,*57
1485720159.82,49847,12.81,73788.0,-6.41,-37.21,-37.33,0,*56
1485720161.08,49848,12.81,73786.3,-6.39,-37.39,-37.63,0,*5A
1485720162.34,49849,12.81,73784.8,-6.41,-37.33,-37.39,0,*51
1485720163.63,49850,12.81,73784.3,-6.41,-37.39,-37.63,0,*5C
1485720164.88,49851,12.81,73784.5,-6.41,-37.33,-37.39,0,*58
1485720166.14,49852,12.75,73780.0,-6.41,-37.33,-37.51,0,*55
1485720167.43,49853,12.81,73786.5,-6.41,-37.39,-37.51,0,*5E
1485720168.68,49854,12.75,73780.8,-6.41,-37.51,-37.75,0,*51
1485720169.94,49855,12.81,73784.0,-6.41,-37.51,-37.75,0,*50
1485720171.2,49856,12.81,73784.3,-6.41,-37.39,-37.75,0,*5D
1485720172.45,49857,12.81,73786.8,-6.41,-37.57,-37.81,0,*5F
1485720173.69,49858,12.81,73786.8,-6.43,-37.57,-37.81,0,*52
1485720174.92,49859,12.81,73786.0,-6.43,-37.63,-37.87,0,*52
1485720176.16,49860,12.81,73786.5,-6.43,-37.69,-37.87,0,*52
1485720177.38,49861,12.81,73786.0,-6.43,-37.57,-37.69,0,*5E
1485720178.6,49862,12.81,73786.0,-6.43,-37.39,-37.45,0,*5B
1485720179.81,49863,12.81,73786.5,-6.43,-37.27,-37.45,0,*55
1485720181.06,49864,12.81,73784.3,-6.43,-37.39,-37.69,0,*53
1485720182.32,49865,12.81,73788.5,-6.43,-37.63,-37.81,0,*5B
1485720183.58,49866,12.81,73786.8,-6.45,-37.81,-38.05,0,*51
1485720184.86,49867,12.81,73788.3,-6.45,-37.69,-37.99,0,*5C
1485720186.09,49868,12.81,73784.5,-6.43,-37.39,-37.57,0,*52
1485720187.32,49869,12.81,73786.0,-6.43,-37.27,-37.39,0,*54
1485720188.58,49870,12.81,73786.3,-6.45,-37.45,-37.81,0,*5D
1485720189.84,49871,12.81,73784.3,-6.45,-37.63,-37.87,0,*5E
1485720191.13,49872,12.81,73784.0,-6.45,-37.63,-37.81,0,*5B
1485720192.36,49873,12.81,73784.5,-6.43,-37.39,-37.57,0,*58
1485720193.59,49874,12.75,73784.8,-6.43,-37.45,-37.81,0,*5F
1485720194.81,49875,12.75,73782.3,-6.43,-37.57,-37.69,0,*5B
1485720196.04,49876,12.81,73786.8,-6.43,-37.57,-37.81,0,*5E
1485720197.33,49877,12.81,73786.5,-6.45,-37.69,-37.81,0,*54
1485720198.62,49878,12.81,73784.0,-6.45,-37.69,-37.99,0,*52
1485720199.9,49879,12.81,73786.5,-6.45,-37.69,-37.81,0,*5A
1485720201.18,49880,12.81,73788.3,-6.45,-37.63,-37.69,0,*50
1485720202.44,49881,12.81,73786.8,-6.43,-37.63,-37.81,0,*51
1485720203.7,49882,12.81,73790.3,-6.45,-37.63,-37.87,0,*52
1485720204.95,49883,12.81,73786.8,-6.45,-37.39,-37.57,0,*51
1485720206.18,49884,12.81,73786.5,-6.43,-37.21,-37.45,0,*5A
1485720207.47,49885,12.81,73788.5,-6.45,-37.09,-37.39,0,*5C
1485720208.7,49886,12.75,73782.0,-6.43,-37.21,-37.27,0,*5C
1485720209.93,49887,12.81,73784.8,-6.43,-37.03,-37.21,0,*5B
1485720211.16,49888,12.81,73786.8,-6.43,-37.09,-37.27,0,*58
1485720212.43,49889,12.81,73788.8,-6.43,-37.21,-37.39,0,*5C
1485720213.66,49890,12.81,73786.3,-6.43,-37.21,-37.27,0,*5B
1485720214.89,49891,12.81,73786.8,-6.43,-37.03,-37.09,0,*56
1485720216.16,49892,12.81,73784.5,-6.43,-37.21,-37.39,0,*56
1485720217.36,49893,12.81,73786.5,-6.43,-37.27,-37.57,0,*59
1485720218.62,49894,12.81,73780.3,-6.45,-37.63,-37.87,0,*55
1485720219.88,49895,12.81,73784.8,-6.43,-37.63,-37.81,0,*54
1485720221.14,49896,12.75,73782.0,-6.45,-37.57,-37.63,0,*5A
1485720222.37,49897,12.81,73784.8,-6.43,-37.39,-37.45,0,*51
1485720223.59,49898,12.81,73786.3,-6.43,-37.39,-37.45,0,*5E
1485720224.85,49899,12.81,73788.0,-6.43,-37.09,-37.39,0,*57
1485720226.08,49900,12.81,73786.8,-6.43,-37.39,-37.57,0,*5D
1485720227.33,49901,12.81,73790.0,-6.43,-37.39,-37.69,0,*51
1485720228.58,49902,12.81,73788.5,-6.43,-37.39,-37.69,0,*52
1485720229.82,49903,12.81,73784.5,-6.43,-37.27,-37.39,0,*59
1485720231.11,49904,12.75,73782.8,-6.45,-37.21,-37.39,0,*5E
1485720232.34,49905,12.81,73782.3,-6.43,-37.27,-37.39,0,*5F
1485720233.61,49906,12.81,73786.0,-6.43,-37.21,-37.39,0,*5A
1485720234.86,49907,12.81,73786.0,-6.41,-37.33,-37.39,0,*5A
1485720236.12,49908,12.81,73786.5,-6.41,-37.15,-37.21,0,*58
1485720237.36,49909,12.81,73786.8,-6.41,-36.97,-37.15,0,*55
1485720238.62,49910,12.81,73786.3,-6.41,-37.03,-37.21,0,*56
1485720239.82,49911,12.81,73782.8,-6.39,-37.33,-37.57,0,*5A
1485720241.11,49912,12.81,73780.3,-6.41,-37.39,-37.63,0,*5B
1485720242.37,49913,12.81,73780.8,-6.41,-37.51,-37.57,0,*53
1485720243.6,49914,12.81,73784.8,-6.39,-37.33,-37.63,0,*58
1485720244.86,49915,12.81,73784.8,-6.41,-37.39,-37.57,0,*5B
1485720246.09,49916,12.81,73786.0,-6.39,-37.39,-37.57,0,*57
1485720247.38,49917,12.81,73784.3,-6.41,-37.39,-37.63,0,*5E
1485720248.64,49918,12.81,73784.5,-6.39,-37.51,-37.63,0,*50
1485720249.9,49919,12.81,73784.0,-6.43,-37.63,-37.81,0,*51
1485720251.19,49920,12.81,73784.3,-6.41,-37.63,-37.81,0,*59
1485720252.47,49921,12.81,73786.3,-6.41,-37.63,-37.93,0,*5B
1485720253.73,49922,12.81,73786.3,-6.41,-37.57,-37.63,0,*50
1485720254.98,49923,12.81,73786.3,-6.41,-37.33,-37.51,0,*52
1485720256.18,49924,12.81,73786.0,-6.43,-37.27,-37.45,0,*57
1485720257.44,49925,12.81,73790.5,-6.41,-37.15,-37.21,0,*57
1485720258.7,49926,12.81,73788.3,-6.41,-37.03,-37.21,0,*53
1485720259.99,49927,12.81,73788.0,-6.41,-37.39,-37.63,0,*5D
1485720261.24,49928,12.81,73790.0,-6.41,-37.75,-37.93,0,*55
1485720262.5,49929,12.81,73786.0,-6.41,-37.57,-37.93,0,*54
1485720263.75,49930,12.81,73786.3,-6.41,-37.39,-37.57,0,*5C
1485720264.98,49931,12.81,73788.8,-6.41,-37.33,-37.57,0,*57
1485720266.24,49932,12.81,73788.5,-6.41,-37.57,-37.81,0,*5D
1485720267.49,49933,12.81,73786.5,-6.41,-37.75,-37.93,0,*5F
1485720268.72,49934,12.81,73786.8,-6.41,-37.57,-37.75,0,*50
1485720270.01,49935,12.81,73784.3,-6.41,-37.51,-37.63,0,*50
1485720271.3,49936,12.81,73786.3,-6.41,-37.39,-37.63,0,*5D
1485720272.58,49937,12.81,73784.5,-6.41,-37.39,-37.81,0,*50
1485720273.84,49938,12.81,73786.0,-6.41,-37.57,-37.81,0,*57
1485720275.1,49939,12.81,73784.3,-6.41,-37.57,-37.81,0,*56
1485720276.36,49940,12.81,73786.0,-6.43,-37.69,-37.99,0,*5E
1485720277.62,49941,12.81,73788.8,-6.45,-37.87,-37.99,0,*59
1485720278.88,49942,12.81,73784.3,-6.41,-37.75,-37.93,0,*59
1485720280.1,49943,12.81,73788.3,-6.43,-37.57,-37.69,0,*5F
1485720281.33,49944,12.81,73786.0,-6.43,-37.57,-37.69,0,*58
1485720282.56,49945,12.81,73786.0,-6.43,-37.39,-37.57,0,*5C
1485720283.76,49946,12.81,73788.8,-6.43,-37.45,-37.57,0,*54
1485720285.02,49947,12.81,73786.0,-6.43,-37.39,-37.63,0,*59
1485720286.26,49948,12.81,73784.0,-6.43,-37.27,-37.39,0,*56
1485720287.49,49949,12.81,73786.5,-6.43,-37.39,-37.57,0,*50
1485720288.77,49950,12.81,73784.5,-6.45,-37.39,-37.63,0,*59
1485720290.03,49951,12.81,73788.0,-6.43,-37.39,-37.63,0,*5E
1485720291.23,49952,12.81,73788.8,-6.43,-37.27,-37.45,0,*56
1485720292.43,49953,12.81,73786.3,-6.43,-37.27,-37.45,0,*57
1485720293.69,49954,12.81,73786.5,-6.43,-37.39,-37.69,0,*51
1485720294.91,49955,12.81,73786.5,-6.43,-37.57,-37.69,0,*58
1485720296.13,49956,12.81,73788.3,-6.43,-37.45,-37.69,0,*58
1485720297.37,49957,12.81,73784.8,-6.43,-37.69,-37.87,0,*57
1485720298.63,49958,12.81,73784.8,-6.41,-37.75,-37.81,0,*51
1485720299.89,49959,12.81,73784.8,-6.43,-37.81,-37.99,0,*50
1485720301.1,49960,12.75,73782.0,-6.43,-37.87,-38.05,0,*56
1485720302.33,49961,12.81,73784.8,-6.43,-37.99,-38.17,0,*5B
1485720303.57,49962,12.81,73780.0,-6.43,-37.87,-37.99,0,*5E
1485720304.8,49963,12.81,73786.8,-6.43,-37.45,-37.63,0,*54
1485720306.05,49964,12.81,73786.3,-6.45,-37.57,-37.69,0,*5C
1485720307.31,49965,12.81,73786.3,-6.43,-37.69,-37.81,0,*50
1485720308.6,49966,12.75,73780.3,-6.45,-37.63,-37.81,0,*5F
1485720309.85,49967,12.81,73780.0,-6.43,-37.39,-37.69,0,*51
1485720311.05,49968,12.81,73782.8,-6.43,-37.45,-37.57,0,*58
1485720312.3,49969,12.81,73782.0,-6.45,-37.39,-37.45,0,*57
1485720313.53,49970,12.81,73784.8,-6.43,-37.39,-37.57,0,*5A
1485720314.78,49971,12.81,73786.0,-6.45,-37.39,-37.45,0,*5E
1485720315.99,49972,12.81,73786.8,-6.43,-37.27,-37.57,0,*57
1485720317.2,49973,12.81,73784.0,-6.43,-37.27,-37.57,0,*56
1485720318.48,49974,12.81,73784.0,-6.45,-37.39,-37.63,0,*5F
1485720319.72,49975,12.81,73784.0,-6.43,-37.45,-37.63,0,*53
1485720320.97,49976,12.81,73784.3,-6.45,-37.39,-37.57,0,*5A
1485720322.26,49977,12.81,73784.0,-6.45,-37.39,-37.39,0,*53
1485720323.53,49978,12.81,73786.3,-6.45,-37.63,-37.69,0,*56
1485720324.79,49979,12.81,73786.0,-6.43,-37.63,-37.81,0,*57
1485720326.08,49980,12.81,73786.5,-6.45,-37.69,-37.99,0,*54
1485720327.34,49981,12.81,73786.0,-6.43,-37.69,-37.99,0,*53
1485720328.57,49982,12.81,73786.3,-6.43,-37.69,-37.87,0,*5F
1485720329.86,49983,12.81,73784.5,-6.45,-37.69,-37.81,0,*5E
1485720331.14,49984,12.81,73784.5,-6.45,-37.69,-37.99,0,*50
1485720332.41,49985,12.81,73786.5,-6.45,-37.87,-37.99,0,*51
1485720333.67,49986,12.81,73782.3,-6.45,-37.87,-37.99,0,*52
1485720334.96,49987,12.81,73784.8,-6.45,-37.81,-37.99,0,*55
1485720336.26,49988,12.81,73786.3,-6.45,-37.81,-37.99,0,*5A
1485720337.52,49989,12.81,73786.5,-6.45,-37.63,-37.87,0,*58
1485720338.79,49990,12.81,73784.8,-6.47,-37.81,-37.99,0,*51
1485720339.99,49991,12.81,73788.0,-6.47,-37.87,-38.05,0,*5C
1485720341.2,49992,12.81,73784.8,-6.47,-37.87,-38.05,0,*5F
1485720342.47,49993,12.81,73788.5,-6.47,-37.63,-37.63,0,*5B
1485720343.7,49994,12.81,73782.5,-6.51,-37.63,-37.75,0,*5C
1485720344.93,49995,12.81,73784.8,-6.47,-37.57,-37.69,0,*50
1485720346.16,49996,12.81,73784.3,-6.47,-37.45,-37.63,0,*5A
1485720347.39,49997,12.81,73784.3,-6.47,-37.45,-37.69,0,*51
1485720348.63,49998,12.81,73784.0,-6.51,-37.51,-37.75,0,*51
1485720349.86,49999,12.81,73782.8,-6.47,-37.57,-37.63,0,*56
1485720351.1,50000,12.81,73786.5,-6.47,-37.21,-37.27,0,*56
1485720352.36,50001,12.81,73786.8,-6.47,-37.39,-37.39,0,*51
1485720353.59,50002,12.81,73782.8,-6.51,-37.75,-37.93,0,*5D
1485720354.82,50003,12.81,73786.5,-6.47,-37.57,-37.81,0,*58
1485720356.06,50004,12.81,73780.8,-6.47,-37.39,-37.57,0,*5C
1485720357.29,50005,12.81,73782.8,-6.47,-37.39,-37.45,0,*5E
1485720358.52,50006,12.81,73782.5,-6.47,-37.09,-37.27,0,*5A
1485720359.78,50007,12.81,73784.0,-6.47,-37.09,-37.21,0,*5D
1485720360.99,50008,12.81,73784.0,-6.47,-37.27,-37.57,0,*5F
1485720362.22,50009,12.81,73786.5,-6.47,-37.45,-37.63,0,*5D
1485720363.46,50010,12.81,73782.3,-6.47,-37.57,-37.63,0,*56
1485720364.66,50011,12.81,73786.0,-6.47,-37.27,-37.45,0,*54
1485720365.9,50012,12.81,73786.5,-6.47,-37.39,-37.57,0,*5B
1485720367.16,50013,12.81,73784.8,-6.47,-37.39,-37.63,0,*5D
1485720368.4,50014,12.81,73786.5,-6.51,-37.51,-37.87,0,*59
1485720369.6,50015,12.81,73780.3,-6.47,-37.27,-37.45,0,*50
1485720370.86,50016,12.81,73782.3,-6.47,-37.09,-37.09,0,*57
1485720372.12,50017,12.81,73786.0,-6.47,-36.91,-37.09,0,*56
1485720373.35,50018,12.81,73784.8,-6.45,-37.27,-37.45,0,*5F
1485720374.61,50019,12.81,73784.8,-6.43,-37.21,-37.09,0,*56
1485720375.83,50020,12.81,73782.3,-6.45,-37.27,-37.45,0,*54
1485720377.06,50021,12.81,73786.0,-6.43,-37.39,-37.45,0,*5C
1485720378.32,50022,12.81,73784.0,-6.43,-37.63,-37.81,0,*58
1485720379.57,50023,12.81,73784.0,-6.45,-37.57,-37.69,0,*5E
1485720380.8,50024,12.81,73784.5,-6.43,-37.45,-37.63,0,*56
1485720382.05,50025,12.81,73786.8,-6.45,-37.45,-37.69,0,*5B
1485720383.34,50026,12.81,73784.5,-6.45,-37.63,-37.81,0,*5A
1485720384.62,50027,12.81,73784.0,-6.45,-37.69,-37.81,0,*51
1485720385.88,50028,12.81,73784.3,-6.45,-37.63,-37.87,0,*52
1485720387.14,50029,12.81,73784.5,-6.45,-37.69,-37.87,0,*59
1485720388.4,50030,12.81,73790.3,-6.45,-37.63,-37.87,0,*5B
1485720389.66,50031,12.81,73786.5,-6.45,-37.57,-37.63,0,*57
1485720390.92,50032,12.81,73784.8,-6.45,-37.39,-37.57,0,*5B
1485720392.15,50033,12.81,73786.0,-6.45,-37.45,-37.57,0,*51
1485720393.44,50034,12.81,73782.3,-6.45,-37.39,-37.63,0,*5A
1485720394.72,50035,12.81,73782.3,-6.45,-37.63,-37.81,0,*58
1485720395.95,50036,12.81,73784.0,-6.47,-37.57,-37.69,0,*58
1485720397.21,50037,12.81,73786.3,-6.51,-37.69,-37.93,0,*56
1485720398.47,50038,12.81,73782.3,-6.51,-37.63,-37.81,0,*50
1485720399.73,50039,12.81,73786.5,-6.47,-37.39,-37.63,0,*55
1485720400.97,50040,12.81,73786.5,-6.51,-37.45,-37.63,0,*57
1485720402.2,50041,12.81,73784.0,-6.47,-37.57,-37.81,0,*5E
1485720403.49,50042,12.81,73782.3,-6.45,-37.69,-37.81,0,*52
1485720404.72,50043,12.81,73786.8,-6.47,-37.57,-37.81,0,*5C
1485720405.96,50044,12.81,73786.5,-6.47,-37.57,-37.81,0,*5B
1485720407.19,50045,12.81,73782.8,-6.47,-37.57,-37.81,0,*5A
1485720408.45,50046,12.81,73780.5,-6.45,-37.39,-37.57,0,*58
1485720409.68,50047,12.75,73782.0,-6.47,-37.39,-37.57,0,*5B
1485720410.94,50048,12.81,73782.8,-6.51,-37.51,-37.63,0,*5A
1485720412.18,50049,12.75,73782.5,-6.47,-37.45,-37.63,0,*59
1485720413.44,50050,12.81,73788.3,-6.47,-37.09,-37.09,0,*55
1485720414.68,50051,12.75,73784.0,-6.47,-37.21,-37.27,0,*52
1485720415.88,50052,12.81,73784.3,-6.47,-37.45,-37.57,0,*54
1485720417.12,50053,12.81,73786.3,-6.47,-37.45,-37.63,0,*52
1485720418.36,50054,12.81,73784.3,-6.47,-37.63,-37.87,0,*5B
1485720419.59,50055,12.81,73786.3,-6.47,-37.69,-37.87,0,*50
1485720420.86,50056,12.81,73784.5,-6.47,-37.81,-37.81,0,*53
1485720422.11,50057,12.81,73786.5,-6.47,-37.81,-37.87,0,*54
1485720423.32,50058,12.81,73784.8,-6.51,-37.75,-37.87,0,*57
1485720424.58,50059,12.81,73784.8,-6.47,-37.39,-37.63,0,*53
1485720425.81,50060,12.81,73786.3,-6.47,-37.45,-37.69,0,*58
1485720427.05,50061,12.81,73788.8,-6.51,-37.63,-37.87,0,*5A
1485720428.27,50062,12.81,73786.5,-6.47,-37.57,-37.69,0,*59
1485720429.5,50063,12.81,73786.3,-6.47,-37.57,-37.69,0,*58
1485720430.74,50064,12.81,73786.8,-6.51,-37.27,-37.51,0,*54
1485720431.97,50065,12.81,73786.3,-6.47,-37.21,-37.27,0,*55
1485720433.18,50066,12.81,73786.3,-6.51,-37.27,-37.33,0,*52
1485720434.41,50067,12.81,73786.5,-6.47,-37.03,-37.09,0,*5B
1485720435.65,50068,12.81,73784.5,-6.47,-37.45,-37.63,0,*5A
1485720436.91,50069,12.81,73786.8,-6.47,-37.39,-37.63,0,*50
1485720438.14,50070,12.75,73782.0,-6.47,-37.57,-37.69,0,*5A
1485720439.38,50071,12.81,73784.0,-6.47,-37.63,-37.87,0,*5C
1485720440.64,50072,12.81,73784.5,-6.51,-37.69,-37.81,0,*54
1485720441.9,50073,12.81,73786.0,-6.51,-37.69,-37.93,0,*56
1485720443.11,50074,12.81,73786.5,-6.51,-37.87,-38.05,0,*51
1485720444.34,50075,12.81,73786.0,-6.47,-37.69,-37.87,0,*52
1485720445.58,50076,12.81,73786.8,-6.47,-37.69,-37.87,0,*51
1485720446.83,50077,12.75,73784.0,-6.47,-37.81,-37.87,0,*56
1485720448.06,50078,12.75,73782.3,-6.47,-37.99,-38.17,0,*56
1485720449.29,50079,12.81,73788.3,-6.47,-37.99,-38.05,0,*54
1485720450.52,50080,12.75,73784.0,-6.51,-38.05,-38.11,0,*5A
1485720451.75,50081,12.81,73786.3,-6.51,-38.05,-38.11,0,*5B
1485720453.01,50082,12.81,73786.0,-6.51,-38.11,-38.23,0,*5C
1485720454.29,50083,12.81,73786.3,-6.53,-38.11,-38.29,0,*55
1485720455.57,50084,12.81,73784.0,-6.53,-37.99,-38.11,0,*56
1485720456.86,50085,12.81,73784.0,-6.53,-37.81,-38.11,0,*5E
1485720458.09,50086,12.81,73786.3,-6.51,-37.51,-37.87,0,*52
1485720459.35,50087,12.81,73784.0,-6.53,-37.75,-37.99,0,*58
1485720460.63,50088,12.81,73784.5,-6.53,-37.69,-37.93,0,*50
1485720461.92,50089,12.81,73784.5,-6.53,-37.99,-38.11,0,*5B
1485720463.21,50090,12.75,73780.8,-6.53,-37.81,-37.99,0,*55
1485720464.47,50091,12.75,73784.3,-6.55,-37.93,-37.99,0,*51
1485720465.75,50092,12.81,73786.8,-6.55,-37.81,-37.99,0,*51
1485720467.03,50093,12.81,73786.0,-6.53,-37.93,-37.93,0,*5F
1485720468.27,50094,12.81,73786.0,-6.55,-37.75,-37.99,0,*5C
1485720469.52,50095,12.81,73786.0,-6.53,-37.75,-37.93,0,*51
1485720470.78,50096,12.81,73784.0,-6.53,-37.75,-37.81,0,*51
1485720472.04,50097,12.81,73788.5,-6.53,-37.75,-37.99,0,*59
1485720473.32,50098,12.75,73786.5,-6.53,-37.93,-38.11,0,*51
1485720474.58,50099,12.81,73786.8,-6.55,-37.99,-38.11,0,*5C
1485720475.82,50100,12.81,73786.3,-6.55,-37.75,-37.99,0,*50
1485720477.05,50101,12.81,73786.0,-6.55,-37.57,-37.81,0,*58
1485720478.32,50102,12.81,73784.0,-6.55,-37.69,-37.81,0,*56
1485720479.55,50103,12.81,73788.3,-6.55,-37.75,-37.81,0,*5A
1485720480.81,50104,12.75,73784.8,-6.53,-37.75,-37.93,0,*58
1485720482.04,50105,12.81,73786.0,-6.53,-37.75,-37.75,0,*51
1485720483.33,50106,12.81,73784.3,-6.57,-37.99,-37.99,0,*56
1485720484.61,50107,12.81,73786.0,-6.55,-37.81,-37.99,0,*5C
1485720485.82,50108,12.81,73786.8,-6.59,-37.87,-38.05,0,*53
1485720487.09,50109,12.75,73784.5,-6.57,-37.87,-37.99,0,*56
1485720488.39,50110,12.81,73788.0,-6.57,-37.81,-37.99,0,*58
1485720489.6,50111,12.81,73786.3,-6.55,-37.57,-37.75,0,*52
1485720490.89,50112,12.81,73784.3,-6.57,-37.63,-37.81,0,*5F
1485720492.13,50113,12.75,73782.0,-6.57,-37.75,-37.87,0,*5F
1485720493.42,50114,12.81,73786.0,-6.57,-37.63,-37.81,0,*59
1485720494.71,50115,12.81,73784.8,-6.57,-37.63,-37.99,0,*51
1485720495.95,50116,12.81,73784.3,-6.57,-37.57,-37.75,0,*57
1485720497.19,50117,12.81,73784.0,-6.57,-37.57,-37.75,0,*56
1485720498.48,50118,12.81,73784.0,-6.57,-37.63,-37.81,0,*55